CDT,Max TemperatureF,Mean TemperatureF,Min TemperatureF,Max Dew PointF,MeanDew PointF,Min DewpointF,Max Humidity, Mean Humidity, Min Humidity, Max Sea Level PressureIn, Mean Sea Level PressureIn, Min Sea Level PressureIn, Max VisibilityMiles, Mean VisibilityMiles, Min VisibilityMiles, Max Wind SpeedMPH, Mean Wind SpeedMPH, Max Gust SpeedMPH,PrecipitationIn, CloudCover, Events, WindDirDegrees
2013-7-1,83,72,60,59,54,48,97,64,31,30.02,29.98,29.94,10,10,10,17,7,25,0.00,3,,328
2013-7-2,82,71,59,54,51,45,75,52,28,30.08,30.04,29.99,10,10,10,14,5,22,0.00,0,,318
2013-7-3,84,69,53,56,51,47,93,62,30,30.11,30.06,30.01,10,10,9,13,3,18,0.00,2,,163
2013-7-4,87,71,55,63,55,50,93,62,31,30.07,30.04,29.99,10,8,1,21,3,26,0.92,3,Rain-Thunderstorm,70
2013-7-5,87,73,59,61,58,54,93,64,35,30.06,30.01,29.96,10,10,5,14,4,21,0.11,2,Thunderstorm,138
2013-7-6,90,77,63,65,60,55,93,63,32,30.03,29.99,29.95,10,10,7,16,5,28,0.00,0,,145
2013-7-7,91,79,66,67,63,61,93,67,41,30.06,30.02,29.99,10,10,10,14,7,23,0.00,0,,157
2013-7-8,92,81,69,70,66,63,84,61,38,30.10,30.07,30.03,10,10,10,13,6,17,0.00,0,,160
2013-7-9,94,83,71,69,67,65,84,63,41,30.09,30.04,29.97,10,10,10,13,5,20,0.00,1,,210
2013-7-10,99,85,71,71,67,61,87,61,35,30.03,29.96,29.89,10,10,10,17,4,23,0.00,1,Thunderstorm,180
2013-7-11,94,82,69,71,65,57,93,63,32,30.01,29.98,29.92,10,10,10,12,4,16,0.00,0,,39
2013-7-12,90,77,64,60,55,44,81,52,22,30.08,30.03,29.99,10,10,10,14,6,18,0.00,0,,116
2013-7-13,86,73,59,60,54,49,84,57,29,30.07,30.02,29.98,10,10,10,12,4,21,0.00,0,,112
2013-7-14,88,74,59,61,58,53,90,61,32,30.08,30.03,29.99,10,10,8,15,7,25,0.00,0,,116
2013-7-15,90,78,66,70,67,61,100,73,45,30.21,30.14,30.06,10,7,0,16,5,21,0.58,6,Fog-Rain-Thunderstorm,129
2013-7-16,89,79,68,73,70,67,100,76,51,30.31,30.25,30.18,10,7,0,16,3,21,0.03,3,Fog-Rain-Thunderstorm,114
2013-7-17,92,80,67,71,66,61,100,68,36,30.32,30.26,30.19,10,10,7,12,3,15,0.00,1,,148
2013-7-18,95,82,68,70,66,60,93,63,33,30.22,30.12,30.03,10,10,10,18,3,23,0.00,1,Thunderstorm,139
2013-7-19,91,80,69,71,68,63,100,74,47,30.06,30.00,29.93,10,9,1,21,4,38,0.35,2,Rain-Thunderstorm,169
2013-7-20,92,80,68,70,68,65,100,76,52,29.97,29.93,29.86,10,8,2,22,6,29,0.54,3,Rain-Thunderstorm,298
2013-7-21,82,75,67,74,70,64,100,87,74,30.01,29.93,29.86,10,7,0,14,2,18,0.58,5,Fog-Rain-Thunderstorm,148
2013-7-22,85,76,66,72,67,63,93,78,62,30.01,29.92,29.84,10,8,1,15,4,23,0.55,5,Rain-Thunderstorm,256
2013-7-23,96,83,70,72,69,66,90,67,43,29.96,29.88,29.79,10,10,3,22,10,29,0.05,2,Rain-Thunderstorm,220
2013-7-24,84,77,69,70,68,66,93,76,58,30.05,29.96,29.86,10,10,10,21,5,28,0.06,5,Rain,338
2013-7-25,82,73,64,68,63,61,93,72,51,30.10,30.07,30.02,10,10,10,10,4,14,0.00,1,,120
2013-7-26,71,69,66,68,66,64,100,92,84,30.11,30.05,29.99,10,6,1,10,5,14,1.14,7,Rain,133
2013-7-27,81,71,61,67,64,57,100,73,45,30.07,30.03,29.96,10,5,0,12,4,16,0.00,5,Fog,324
2013-7-28,77,69,61,66,62,59,97,79,60,30.06,30.04,30.00,10,10,10,12,3,13,T,2,Rain,120
2013-7-29,84,75,66,70,68,64,93,79,65,30.13,30.07,30.03,10,10,8,21,10,26,0.14,3,,147
2013-7-30,86,79,72,73,72,70,100,81,61,30.09,30.05,29.98,10,5,0,24,4,31,1.24,7,Fog-Rain-Thunderstorm,160
2013-7-31,89,80,70,74,72,69,100,79,57,30.09,30.04,29.98,10,9,5,13,4,30,0.00,4,Thunderstorm,324